2011,04,01,00,05,-0.02,1,-99999,99,-0.28,1,6.53,1,106.3,8,6.93,1,3.28,1,341.9,1,6.28,1,996.46,1,12.64,1,139.31,1
2011,04,01,00,10,-0.05,1,-99999,99,-0.36,1,6.46,1,106.2,8,6.91,1,4.18,1,330.1,1,7.62,1,996.46,1,12.64,1,139.32,1
2011,04,01,00,15,-0.07,1,-99999,99,-0.36,1,6.42,1,106.2,8,6.91,1,3.22,1,326.2,1,6.66,1,996.69,1,12.64,1,139.29,1
2011,04,01,00,20,-0.07,1,-99999,99,-0.39,1,6.42,1,106.2,8,6.9,1,2.22,1,327,1,5.14,1,996.96,1,12.63,1,139.23,1
2011,04,01,00,25,-0.22,1,-99999,99,-0.42,1,6.38,1,106.2,8,6.9,1,2.73,1,312.6,1,5.52,1,997.01,1,12.63,1,139.14,1
2011,04,01,00,30,-0.19,1,-99999,99,-0.41,1,6.32,1,106.3,8,6.88,1,2.83,1,321.8,1,4.19,1,997.04,1,12.58,1,139.01,1
2011,04,01,00,35,-0.24,1,-99999,99,-0.42,1,6.3,1,106.4,8,6.87,1,2.02,1,310,1,4.95,1,997.02,1,12.61,1,138.85,1
2011,04,01,00,40,-0.24,1,-99999,99,-0.42,1,6.29,1,106.3,8,6.86,1,3.26,1,319.2,1,5.33,1,997.01,1,12.62,1,138.66,1
2011,04,01,00,45,-0.15,1,-99999,99,-0.37,1,6.28,1,106.2,8,6.84,1,2.39,1,319.2,1,4.57,1,997.1,1,12.61,1,138.44,1
2011,04,01,00,50,-0.18,1,-99999,99,-0.32,1,6.3,1,106.3,8,6.84,1,2.3,1,311.8,1,4.76,1,997.18,1,12.61,1,138.19,1
2011,04,01,00,55,-0.15,1,-99999,99,-0.32,1,6.31,1,106.2,8,6.82,1,2.11,1,300.5,1,5.33,1,997.25,1,12.61,1,137.9,1
2011,04,01,01,00,-0.1,1,-99999,99,-0.25,1,6.34,1,106.4,8,6.82,1,2.48,1,313.1,1,4.57,1,997.24,1,12.61,1,137.59,1
2011,04,01,01,05,-0.13,1,-99999,99,-0.3,1,6.32,1,106.3,8,6.8,1,2.82,1,320.5,1,5.14,1,997.18,1,12.61,1,137.24,1
2011,04,01,01,10,-0.14,1,-99999,99,-0.23,1,6.34,1,106.3,8,6.78,1,2.23,1,317.4,1,4,1,997.06,1,12.6,1,136.87,1
2011,04,01,01,15,-0.15,1,-99999,99,-0.32,1,6.33,1,106.2,8,6.78,1,2.25,1,320.9,1,3.81,1,997.09,1,12.6,1,136.46,1
2011,04,01,01,20,-0.04,1,-99999,99,-0.17,1,6.35,1,106.2,8,6.77,1,1.41,1,323.2,1,3.43,1,996.96,1,12.6,1,136.03,1
2011,04,01,01,25,-0.12,1,-99999,99,-0.22,1,6.42,1,106.2,8,6.76,1,0.59,1,304.8,1,3.24,1,996.87,1,12.6,1,135.58,1
2011,04,01,01,30,-0.07,1,-99999,99,-0.25,1,6.41,1,106.1,8,6.75,1,1.15,1,325.3,1,3.05,1,996.8,1,12.55,1,135.1,1
2011,04,01,01,35,-0.2,1,-99999,99,-0.35,1,6.44,1,106.2,8,6.74,1,1.21,1,304.2,1,4.19,1,996.87,1,12.59,1,134.59,1
2011,04,01,01,40,-0.27,1,-99999,99,-0.42,1,6.43,1,106.1,8,6.74,1,1.46,1,301.3,1,3.43,1,996.95,1,12.59,1,134.06,1
2011,04,01,01,45,-0.38,1,-99999,99,-0.42,1,6.45,1,106.2,8,6.74,1,0.83,1,299.5,1,2.29,1,996.84,1,12.59,1,133.51,1
2011,04,01,01,50,-0.32,1,-99999,99,-0.43,1,6.45,1,106.1,8,6.74,1,0.99,1,297.9,1,2.86,1,996.8,1,12.59,1,132.93,1
2011,04,01,01,55,-0.39,1,-99999,99,-0.43,1,6.45,1,106.2,8,6.74,1,1.06,1,295,1,2.67,1,996.85,1,12.59,1,132.33,1
2011,04,01,02,00,-0.34,1,-99999,99,-0.43,1,6.45,1,106.3,8,6.74,1,0.55,1,283.6,1,2.1,1,996.93,1,12.59,1,131.71,1
2011,04,01,02,05,-0.27,1,-99999,99,-0.43,1,6.45,1,106.3,8,6.74,1,1.09,1,297.4,1,2.48,1,996.93,1,12.59,1,131.07,1
2011,04,01,02,10,-0.28,1,-99999,99,-0.43,1,6.46,1,106.4,8,6.74,1,1.15,1,293.6,1,2.48,1,997.07,1,12.59,1,130.42,1
2011,04,01,02,15,-0.28,1,-99999,99,-0.42,1,6.48,1,106.3,8,6.74,1,0.67,1,292.3,1,2.29,1,997.01,1,12.59,1,129.74,1
2011,04,01,02,20,-0.24,1,-99999,99,-0.42,1,6.5,1,106.2,8,6.76,1,0.94,1,291.3,1,2.67,1,996.99,1,12.59,1,129.05,1
2011,04,01,02,25,-0.18,1,-99999,99,-0.41,1,6.51,1,106.2,8,6.76,1,1.24,1,294.8,1,3.43,1,996.88,1,12.59,1,128.34,1
2011,04,01,02,30,-0.18,1,-99999,99,-0.41,1,6.53,1,106.3,8,6.76,1,1.55,1,286,1,4,1,996.92,1,12.54,1,127.61,1
2011,04,01,02,35,-0.24,1,-99999,99,-0.43,1,6.53,1,106.4,8,6.76,1,1.37,1,283.2,1,4,1,997,1,12.58,1,126.87,1
2011,04,01,02,40,-0.16,1,-99999,99,-0.42,1,6.55,1,106.3,8,6.77,1,1.44,1,292,1,3.43,1,997.03,1,12.58,1,126.12,1
2011,04,01,02,45,-0.19,1,-99999,99,-0.41,1,6.57,1,106.3,8,6.78,1,1.5,1,289.4,1,3.43,1,997.11,1,12.58,1,125.35,1
2011,04,01,02,50,-0.19,1,-99999,99,-0.43,1,6.58,1,106.4,8,6.78,1,0.96,1,297.8,1,3.05,1,997.1,1,12.58,1,124.56,1
2011,04,01,02,55,-0.3,1,-99999,99,-0.42,1,6.59,1,106.3,8,6.8,1,0.76,1,292.1,1,2.86,1,996.99,1,12.58,1,123.77,1
2011,04,01,03,00,-0.27,1,-99999,99,-0.42,1,6.61,1,106.4,8,6.8,1,0.69,1,289.4,1,2.48,1,996.96,1,12.58,1,122.96,1
2011,04,01,03,05,-0.34,1,-99999,99,-0.43,1,6.6,1,106.3,8,6.82,1,1.55,1,303.6,1,2.86,1,996.88,1,12.58,1,122.14,1
2011,04,01,03,10,-0.2,1,-99999,99,-0.43,1,6.63,1,106.4,8,6.82,1,0.5,1,295.6,1,2.29,1,996.91,1,12.58,1,121.31,1
2011,04,01,03,15,-0.3,1,-99999,99,-0.42,1,6.63,1,106.5,8,6.82,1,0.87,1,287,1,2.86,1,996.97,1,12.58,1,120.47,1
2011,04,01,03,20,-0.22,1,-99999,99,-0.42,1,6.63,1,106.5,8,6.84,1,0.62,1,280.1,1,2.1,1,996.97,1,12.58,1,119.61,1
2011,04,01,03,25,-0.26,1,-99999,99,-0.43,1,6.63,1,106.5,8,6.84,1,0.79,1,278.4,1,2.1,1,996.97,1,12.58,1,118.75,1
2011,04,01,03,30,-0.25,1,-99999,99,-0.42,1,6.64,1,106.5,8,6.85,1,0.73,1,272.5,1,2.86,1,996.91,1,12.53,1,117.88,1
2011,04,01,03,35,-0.21,1,-99999,99,-0.42,1,6.66,1,106.5,8,6.86,1,1.35,1,268.5,1,2.86,1,996.92,1,12.57,1,117,1
2011,04,01,03,40,-0.26,1,-99999,99,-0.42,1,6.66,1,106.5,8,6.88,1,0.59,1,264.7,1,2.29,1,996.87,1,12.58,1,116.11,1
2011,04,01,03,45,-0.26,1,-99999,99,-0.42,1,6.67,1,106.5,8,6.88,1,0.7,1,263.5,1,2.1,1,996.81,1,12.58,1,115.22,1
2011,04,01,03,50,-0.25,1,-99999,99,-0.43,1,6.67,1,106.5,8,6.9,1,1.23,1,271.2,1,2.86,1,996.94,1,12.58,1,114.31,1
2011,04,01,03,55,-0.25,1,-99999,99,-0.43,1,6.68,1,106.4,8,6.9,1,0.66,1,265,1,2.29,1,996.92,1,12.58,1,113.4,1
2011,04,01,04,00,-0.3,1,-99999,99,-0.42,1,6.69,1,106.5,8,6.91,1,0.68,1,279.4,1,2.1,1,996.72,1,12.58,1,112.49,1
2011,04,01,04,05,-0.34,1,-99999,99,-0.43,1,6.7,1,106.5,8,6.92,1,0.96,1,281.9,1,2.67,1,996.72,1,12.58,1,111.56,1
2011,04,01,04,10,-0.27,1,-99999,99,-0.42,1,6.69,1,106.4,8,6.93,1,1.41,1,275.3,1,3.05,1,996.8,1,12.58,1,110.63,1
2011,04,01,04,15,-0.37,1,-99999,99,-0.43,1,6.7,1,106.5,8,6.94,1,1.51,1,283.6,1,3.05,1,996.86,1,12.58,1,109.7,1
2011,04,01,04,20,-0.38,1,-99999,99,-0.43,1,6.71,1,106.4,8,6.94,1,1.33,1,270.6,1,2.86,1,996.88,1,12.58,1,108.75,1
2011,04,01,04,25,-0.39,1,-99999,99,-0.43,1,6.72,1,106.5,8,6.95,1,1.3,1,279.5,1,3.24,1,996.77,1,12.58,1,107.81,1
2011,04,01,04,30,-0.32,1,-99999,99,-0.43,1,6.74,1,106.4,8,6.96,1,1.55,1,276.7,1,4.76,1,996.96,1,12.53,1,106.85,1
2011,04,01,04,35,-0.44,1,-99999,99,-0.43,1,6.73,1,106.5,8,6.98,1,2.26,1,267.9,1,4.95,1,997.12,1,12.57,1,105.9,1
2011,04,01,04,40,-0.44,1,-99999,99,-0.43,1,6.73,1,106.4,8,6.98,1,2.68,1,272,1,5.52,1,997.16,1,12.57,1,104.94,1
2011,04,01,04,45,-0.43,1,-99999,99,-0.43,1,6.74,1,106.5,8,6.99,1,2.79,1,269.8,1,5.9,1,997.04,1,12.58,1,103.97,1
2011,04,01,04,50,-0.43,1,-99999,99,-0.43,1,6.71,1,106.5,8,6.98,1,2.37,1,283.7,1,5.33,1,996.88,1,12.58,1,103,1
2011,04,01,04,55,-0.43,1,-99999,99,-0.43,1,6.7,1,106.4,8,7,1,1.9,1,287,1,3.81,1,996.96,1,12.58,1,102.03,1
2011,04,01,05,00,-0.41,1,-99999,99,-0.43,1,6.68,1,106.4,8,7,1,2.19,1,280,1,4.57,1,997.05,1,12.58,1,101.05,1
2011,04,01,05,05,-0.42,1,-99999,99,-0.43,1,6.63,1,106.4,8,7,1,3.02,1,287.9,1,6.09,1,997.25,1,12.58,1,100.07,1
2011,04,01,05,10,-0.43,1,-99999,99,-0.43,1,6.58,1,106.6,8,7,1,2.71,1,292.8,1,6.09,1,997.24,1,12.57,1,99.09,1
2011,04,01,05,15,-0.45,1,-99999,99,-0.43,1,6.52,1,106.4,8,7,1,2.17,1,271.4,1,5.33,1,997.18,1,12.57,1,98.1,1
2011,04,01,05,20,-0.45,1,-99999,99,-0.43,1,6.49,1,106.5,8,7,1,1.63,1,285.8,1,4.95,1,997.34,1,12.57,1,97.11,1
2011,04,01,05,25,-0.44,1,-99999,99,-0.43,1,6.47,1,106.5,8,6.99,1,1.61,1,280,1,4,1,997.42,1,12.57,1,96.12,1
2011,04,01,05,30,-0.45,1,-99999,99,-0.43,1,6.47,1,106.6,8,6.98,1,1.95,1,274.3,1,4.95,1,997.51,1,12.53,1,95.13,1
2011,04,01,05,35,-0.36,1,-99999,99,-0.43,1,6.44,1,106.6,8,6.98,1,2.13,1,273.6,1,4.19,1,997.72,1,12.56,1,94.13,1
2011,04,01,05,40,-0.21,1,-99999,99,-0.43,1,6.41,1,106.5,8,6.96,1,2.36,1,276.5,1,5.33,1,997.81,1,12.57,1,93.13,1
2011,04,01,05,45,-0.11,1,-99999,99,-0.4,1,6.4,1,106.4,8,6.95,1,1.82,1,273.8,1,4,1,997.84,1,12.57,1,92.13,1
2011,04,01,05,50,0.19,1,-99999,99,-0.01,1,6.42,1,106.4,8,6.94,1,1.19,1,281.4,1,2.86,1,998.02,1,12.57,1,91.13,1
2011,04,01,05,55,0.7,1,-99999,99,0.67,1,6.4,1,106.4,8,6.92,1,1.83,1,283.2,1,4.38,1,998.11,1,12.57,1,89.63,1
2011,04,01,06,00,2.71,1,-99999,99,2.54,1,6.37,1,106.4,8,6.9,1,1.53,1,286.4,1,4.19,1,998.17,1,12.57,1,88.75,1
2011,04,01,06,05,4.58,1,-99999,99,4.58,1,6.3,1,106.3,8,6.9,1,1.63,1,267,1,4.19,1,998.27,1,12.57,1,87.83,1
2011,04,01,06,10,6.96,1,-99999,99,6.96,1,6.31,1,106.3,8,6.88,1,1.6,1,295.2,1,3.81,1,998.23,1,12.57,1,86.88,1
2011,04,01,06,15,7.97,1,-99999,99,7.97,1,6.31,1,106.3,8,6.86,1,1.85,1,282.6,1,3.81,1,998.27,1,12.57,1,85.91,1
2011,04,01,06,20,12.66,1,-99999,99,12.66,1,6.34,1,106.5,8,6.84,1,1.6,1,268,1,4,1,998.38,1,12.57,1,84.93,1
2011,04,01,06,25,21.21,1,-99999,99,21.21,1,6.35,1,106.3,8,6.84,1,1.62,1,268.8,1,3.62,1,998.46,1,12.57,1,83.95,1
2011,04,01,06,30,25.55,1,-99999,99,25.55,1,6.37,1,106.3,8,6.82,1,1.68,1,278.9,1,4,1,998.44,1,12.52,1,82.96,1
2011,04,01,06,35,17.85,1,-99999,99,17.85,1,6.36,1,106.3,8,6.82,1,1.8,1,282.1,1,4,1,998.46,1,12.56,1,81.96,1
2011,04,01,06,40,17.89,1,-99999,99,17.89,1,6.4,1,106.3,8,6.8,1,1.03,1,285.9,1,3.81,1,998.7,1,12.57,1,80.96,1
2011,04,01,06,45,12.52,1,-99999,99,12.52,1,6.41,1,106.3,8,6.8,1,1.21,1,272.3,1,3.05,1,998.77,1,12.57,1,79.96,1
2011,04,01,06,50,21.56,2,-99999,99,21.56,2,6.41,1,106.2,8,6.8,1,1.28,1,265.2,1,3.05,1,998.77,1,12.57,1,78.96,1
2011,04,01,06,55,38.44,2,-99999,99,38.44,2,6.41,1,106.1,8,6.8,1,1.95,1,278.2,1,4.38,1,998.7,1,12.58,1,77.96,1
2011,04,01,07,00,50.05,2,-99999,99,50.05,2,6.41,1,106.1,8,6.8,1,1.66,1,279.6,1,3.62,1,998.63,1,12.62,1,76.96,1
2011,04,01,07,05,87.59,2,-99999,99,87.59,2,6.44,1,106.1,8,6.8,1,1.4,1,286.4,1,3.81,1,998.77,1,12.69,1,75.96,1
2011,04,01,07,10,85.11,2,-99999,99,85.11,2,6.51,1,106,8,6.8,1,1.38,1,279.8,1,3.05,1,998.85,1,12.76,1,74.96,1
2011,04,01,07,15,94.68,2,-99999,99,94.68,2,6.52,1,105.8,8,6.82,1,2.31,1,276.4,1,4.95,1,998.89,1,12.82,1,73.96,1
2011,04,01,07,20,99.78,2,-99999,99,99.78,2,6.6,1,105.7,8,6.83,1,0.82,1,269.5,1,1.9,1,999,1,12.88,1,72.96,1
2011,04,01,07,25,124.67,2,-99999,99,124.67,2,6.66,1,105.7,8,6.86,1,1.93,1,272.3,1,4.57,1,998.99,1,13.03,1,71.96,1
2011,04,01,07,30,125.94,2,-99999,99,125.94,2,6.63,1,105.5,8,6.89,1,2.09,1,269.4,1,3.81,1,998.96,1,13.08,1,70.97,1
2011,04,01,07,35,146.88,2,-99999,99,142.33,2,6.62,1,105.1,8,6.93,1,2.81,1,283.7,1,4.76,1,998.97,1,13.43,1,69.97,1
2011,04,01,07,40,162.34,2,-99999,99,162.34,2,6.78,1,104.9,1,6.97,1,1.96,1,284.4,1,4.19,1,998.97,1,13.42,1,68.98,1
2011,04,01,07,45,135.69,2,-99999,99,134.37,2,6.93,1,104.6,1,7.02,1,1.74,1,262.6,1,3.24,1,999.02,1,13.46,1,67.99,1
2011,04,01,07,50,50.95,2,-99999,99,50.95,2,6.84,1,104.2,1,7.08,1,3.16,1,265.3,1,6.66,1,999.03,1,13.12,1,67.01,1
2011,04,01,07,55,73.68,2,-99999,99,73.68,2,6.71,1,104.1,1,7.14,1,2.62,1,261.8,1,4.19,1,999.13,1,13.09,1,66.02,1
2011,04,01,08,00,84.48,2,-99999,99,84.48,2,6.67,1,104,1,7.2,1,2.23,1,265.6,1,5.14,1,999.22,1,13.12,1,65.04,1
2011,04,01,08,05,70.21,2,-99999,99,70.21,2,6.67,1,103.8,1,7.25,1,2.14,1,266.7,1,5.33,1,999.27,1,13.09,1,64.06,1
2011,04,01,08,10,62.35,2,-99999,99,62.35,2,6.7,1,103.7,1,7.29,1,1.75,1,271.2,1,4.19,1,999.32,1,13.03,1,63.09,1
2011,04,01,08,15,88.57,2,-99999,99,88.57,2,6.73,1,103.5,1,7.32,1,1.52,1,258.9,1,4.19,1,999.38,1,13.09,1,62.12,1
2011,04,01,08,20,107.14,2,-99999,99,107.14,2,6.81,1,103.1,1,7.34,1,1.8,1,261.5,1,4.19,1,999.45,1,13.18,1,61.15,1
2011,04,01,08,25,124.26,2,-99999,99,124.26,2,6.82,1,102.5,1,7.37,1,2.7,1,258.9,1,5.14,1,999.48,1,13.27,1,60.19,1
2011,04,01,08,30,119.07,2,-99999,99,119.07,2,6.88,1,101.7,1,7.39,1,3.14,1,256.4,1,6.86,1,999.55,1,13.21,1,59.24,1
2011,04,01,08,35,167.03,2,-99999,99,167.03,2,6.94,1,100.7,1,7.43,1,3.46,1,258.3,1,7.05,1,999.58,1,13.53,1,58.28,1
2011,04,01,08,40,267.01,2,-99999,99,267.01,2,7.11,1,99.7,1,7.45,1,2.95,1,261.9,1,6.86,1,999.56,1,13.77,1,57.34,1
2011,04,01,08,45,326.34,2,-99999,99,312.11,2,7.27,1,98.3,1,7.49,1,3.16,1,277.6,1,5.9,1,999.53,1,13.75,1,56.4,1
2011,04,01,08,50,201.69,2,-99999,99,201.69,2,7.35,1,97.5,1,7.55,1,3.49,1,267.6,1,5.71,1,999.51,1,13.74,1,55.47,1
2011,04,01,08,55,136.14,2,-99999,99,136.14,2,7.35,1,97.5,1,7.64,1,3.27,1,280.5,1,6.47,1,999.52,1,13.45,1,54.54,1
2011,04,01,09,00,137.31,2,-99999,99,137.31,2,7.24,1,97.6,1,7.73,1,2.9,1,274.4,1,5.71,1,999.53,1,13.36,1,53.62,1
2011,04,01,09,05,149.81,2,-99999,99,149.81,2,7.29,1,98,1,7.81,1,2.76,1,271.8,1,5.14,1,999.53,1,13.43,1,52.71,1
2011,04,01,09,10,171.32,2,-99999,99,171.32,2,7.43,1,97.6,1,7.89,1,2.44,1,271.1,1,5.9,1,999.51,1,13.59,1,51.8,1
2011,04,01,09,15,202.94,2,-99999,99,202.94,2,7.48,1,97,1,7.96,1,3.56,1,271.9,1,8,1,999.5,1,13.74,1,50.91,1
2011,04,01,09,20,359.12,2,-99999,99,333.77,2,7.48,1,96.4,1,8.03,1,4.36,1,265.4,1,7.05,1,999.45,1,13.74,1,50.02,1
2011,04,01,09,25,304.82,2,-99999,99,295.45,2,7.62,1,95.8,1,8.12,1,3.69,1,263.9,1,6.86,1,999.43,1,13.72,1,49.15,1
2011,04,01,09,30,290.09,2,-99999,99,290.09,2,7.76,1,95.1,1,8.21,1,3.21,1,270,1,5.9,1,999.42,1,13.69,1,48.28,1
2011,04,01,09,35,400.25,2,-99999,99,354.36,2,7.83,1,94.4,1,8.32,1,3.92,1,273.3,1,7.24,1,999.39,1,13.71,1,47.43,1
2011,04,01,09,40,330,2,-99999,99,330,2,7.9,1,93.9,1,8.44,1,3.2,1,287.7,1,6.47,1,999.42,1,13.7,1,46.58,1
2011,04,01,09,45,375.5,2,-99999,99,375.5,2,8.06,1,93.1,1,8.59,1,3.34,1,278.4,1,6.86,1,999.42,1,13.69,1,45.75,1
2011,04,01,09,50,236.94,2,-99999,99,236.94,2,8.19,1,92.2,1,8.74,1,4.31,1,277.2,1,7.24,1,999.36,1,13.69,1,44.94,1
2011,04,01,09,55,306.91,2,-99999,99,306.91,2,7.97,1,92.2,1,8.91,1,4.24,1,270.4,1,8,1,999.31,1,13.69,1,44.13,1
2011,04,01,10,00,373.43,2,-99999,99,369,2,8.27,1,92.6,1,9.06,1,2.03,1,292.1,1,6.66,1,999.35,1,13.69,1,43.35,1
2011,04,01,10,05,400.93,2,-99999,99,384.84,2,8.44,1,92,1,9.21,1,3.86,1,275.4,1,8.19,1,999.34,1,13.68,1,42.57,1
2011,04,01,10,10,341.28,2,-99999,99,341.28,2,8.28,1,91.7,1,9.37,1,4.5,1,267.5,1,8,1,999.31,1,13.67,1,41.82,1
2011,04,01,10,15,337.48,2,-99999,99,337.48,2,8.29,1,91.6,1,9.54,1,2.32,1,292.7,1,6.28,1,999.35,1,13.67,1,41.08,1
2011,04,01,10,20,287.1,2,-99999,99,287.1,2,8.46,1,91.7,1,9.7,1,3.23,1,262.4,1,6.47,1,999.31,1,13.66,1,40.36,1
2011,04,01,10,25,251.27,2,-99999,99,251.27,2,8.37,1,92.8,1,9.85,1,3.48,1,257.8,1,6.28,1,999.29,1,13.66,1,39.66,1
2011,04,01,10,30,200.4,2,-99999,99,200.4,2,8.22,1,93.4,1,10,1,4.74,1,268.4,1,8.19,1,999.27,1,13.62,1,38.98,1
2011,04,01,10,35,476.06,2,-99999,99,420.29,2,8.27,1,93.6,1,10.12,1,3.05,1,289.3,1,6.28,1,999.36,1,13.67,1,38.33,1
2011,04,01,10,40,433.66,2,-99999,99,405.75,2,8.55,1,91,1,10.23,1,4.17,1,267.8,1,7.24,1,999.28,1,13.66,1,37.69,1
2011,04,01,10,45,152.98,2,-99999,99,152.98,2,8.39,1,91.1,1,10.34,1,4.29,1,265.8,1,7.24,1,999.27,1,13.61,1,37.08,1
2011,04,01,10,50,147.99,2,-99999,99,147.99,2,8.19,1,92.2,1,10.44,1,3.54,1,279.2,1,7.62,1,999.33,1,13.55,1,36.5,1
2011,04,01,10,55,170.94,2,-99999,99,170.94,2,8.15,1,92.8,1,10.52,1,3.31,1,285.2,1,6.86,1,999.33,1,13.63,1,35.94,1
2011,04,01,11,00,286.57,2,-99999,99,286.57,2,8.18,1,93.2,1,10.58,1,3.62,1,278.9,1,6.86,1,999.33,1,13.67,1,35.41,1
2011,04,01,11,05,353.87,2,-99999,99,353.87,2,8.33,1,92.2,1,10.61,1,3.51,1,268.5,1,7.62,1,999.29,1,13.67,1,34.92,1
2011,04,01,11,10,229.85,2,-99999,99,229.85,2,8.34,1,90.4,1,10.64,1,4.05,1,273.4,1,6.66,1,999.33,1,13.66,1,34.45,1
2011,04,01,11,15,146.57,2,-99999,99,146.57,2,8.28,1,91.2,1,10.67,1,3.29,1,271.6,1,7.43,1,999.33,1,13.57,1,34.01,1
2011,04,01,11,20,259.17,2,-99999,99,259.17,2,8.31,1,91.8,1,10.7,1,3.55,1,262.1,1,7.05,1,999.32,1,13.64,1,33.61,1
2011,04,01,11,25,391.66,2,-99999,99,391.66,2,8.58,1,90.9,1,10.71,1,2.26,1,269.2,1,5.52,1,999.29,1,13.67,1,33.24,1
2011,04,01,11,30,479.13,2,-99999,99,478.32,2,8.84,1,89.5,1,10.74,1,3,1,258.7,1,6.66,1,999.2,1,13.64,1,32.91,1
2011,04,01,11,35,360.96,2,-99999,99,360.96,2,8.72,1,89.4,1,10.77,1,3.91,1,244.1,1,8.57,1,999.1,1,13.65,1,32.62,1
2011,04,01,11,40,340.59,2,-99999,99,340.59,2,8.75,1,88.8,1,10.84,1,4.53,1,258.6,1,6.86,1,999.08,1,13.65,1,32.36,1
2011,04,01,11,45,178,2,-99999,99,178,2,8.69,1,89.4,1,10.92,1,3.84,1,271.5,1,7.24,1,999.14,1,13.64,1,32.15,1
2011,04,01,11,50,195.06,2,-99999,99,195.06,2,8.64,1,88.5,1,11,1,4.53,1,273.4,1,8.57,1,999.17,1,13.64,1,31.97,1
2011,04,01,11,55,104.51,2,-99999,99,104.51,2,8.37,1,89.2,1,11.06,1,4.31,1,285.5,1,8.95,1,999.32,1,13.47,1,31.83,1
2011,04,01,12,00,147.43,2,-99999,99,147.43,2,7.73,1,90.1,1,11.1,1,4.11,1,292,1,6.86,1,999.41,1,13.56,1,31.74,1
2011,04,01,12,05,136.1,2,-99999,99,136.1,2,7.53,1,89.2,1,11.09,1,3.62,1,299,1,7.81,1,999.46,1,13.51,1,31.69,1
2011,04,01,12,10,231.31,2,-99999,99,231.31,2,7.38,1,88.1,1,11.05,1,3.98,1,292.9,1,6.86,1,999.44,1,13.63,1,31.67,1
2011,04,01,12,15,545.4,2,-99999,99,514.14,2,7.51,1,87.7,1,10.99,1,4.24,1,290.9,1,8.57,1,999.4,1,13.67,1,31.7,1
2011,04,01,12,20,195.57,2,-99999,99,195.57,2,7.83,1,87.9,1,10.93,1,3.2,1,294.4,1,6.86,1,999.44,1,13.64,1,31.77,1
2011,04,01,12,25,122.57,2,-99999,99,122.57,2,7.77,1,87.8,1,10.88,1,2.17,1,293.8,1,5.9,1,999.48,1,13.51,1,31.89,1
2011,04,01,12,30,127.48,2,-99999,99,127.48,2,7.72,1,88.2,1,10.85,1,2.72,1,294.6,1,7.05,1,999.46,1,13.35,1,32.04,1
2011,04,01,12,35,222.26,2,-99999,99,222.26,2,7.55,1,88.5,1,10.81,1,2.91,1,289.4,1,6.28,1,999.44,1,13.58,1,32.23,1
2011,04,01,12,40,356.85,2,-99999,99,356.85,2,7.74,1,87.7,1,10.76,1,1.84,1,299.5,1,4.38,1,999.43,1,13.68,1,32.47,1
2011,04,01,12,45,473.74,2,-99999,99,455.41,2,8.18,1,86.4,1,10.72,1,1.69,1,292.8,1,4.57,1,999.38,1,13.67,1,32.74,1
2011,04,01,12,50,419.19,2,-99999,99,413.62,2,8.49,1,83.4,1,10.71,1,3.7,1,290.6,1,7.62,1,999.33,1,13.66,1,33.05,1
2011,04,01,12,55,717.98,2,-99999,99,561.22,2,8.44,1,82.5,1,10.73,1,4.41,1,292.8,1,9.33,1,999.31,1,13.65,1,33.39,1
2011,04,01,13,00,931.09,2,-99999,99,488.37,2,8.79,1,81.5,1,10.8,1,4.93,1,286.1,1,8.95,1,999.23,1,13.64,1,33.78,1
2011,04,01,13,05,660.93,2,-99999,99,469.22,2,9.19,1,81.5,1,10.92,1,3.95,1,300,1,7.43,1,999.26,1,13.63,1,34.19,1
2011,04,01,13,10,543.46,2,-99999,99,510.37,2,9.15,1,82.5,1,11.07,1,4.09,1,301.5,1,7.62,1,999.3,1,13.62,1,34.64,1
2011,04,01,13,15,443.89,2,-99999,99,410.58,2,8.94,1,83.4,1,11.25,1,4.64,1,282.8,1,7.81,1,999.28,1,13.61,1,35.12,1
2011,04,01,13,20,352.51,2,-99999,99,349.63,2,8.48,1,85.5,1,11.42,1,4.55,1,280.3,1,7.24,1,999.32,1,13.61,1,35.63,1
2011,04,01,13,25,384.23,2,-99999,99,374.01,2,8.32,1,86.8,1,11.57,1,3.6,1,284.4,1,5.9,1,999.32,1,13.62,1,36.17,1
2011,04,01,13,30,446.54,2,-99999,99,414.25,2,8.74,1,85.8,1,11.68,1,2.09,1,279.3,1,3.62,1,999.37,1,13.6,1,36.74,1
2011,04,01,13,35,467.73,2,-99999,99,432.23,2,9.15,1,84.8,1,11.76,1,1.73,1,265.9,1,5.33,1,999.34,1,13.62,1,37.34,1
2011,04,01,13,40,299.9,2,-99999,99,299.9,2,9.38,1,82.1,1,11.84,1,3.4,1,263.7,1,6.86,1,999.28,1,13.62,1,37.95,1
2011,04,01,13,45,254.78,2,-99999,99,254.78,2,9.02,1,82.6,1,11.92,1,2.79,1,254.4,1,6.09,1,999.27,1,13.62,1,38.6,1
2011,04,01,13,50,363.99,2,-99999,99,363.99,2,8.97,1,82.2,1,12.01,1,3.95,1,267.9,1,6.09,1,999.13,1,13.62,1,39.26,1
2011,04,01,13,55,242.43,2,-99999,99,242.43,2,9.02,1,81.4,1,12.07,1,4.03,1,273.4,1,6.28,1,999.13,1,13.62,1,39.95,1
2011,04,01,14,00,210.25,2,-99999,99,210.25,2,9.18,1,81.7,1,12.12,1,2.99,1,277,1,6.09,1,999.24,1,13.63,1,40.66,1
2011,04,01,14,05,357.67,2,-99999,99,351.06,2,9.35,1,80.7,1,12.15,1,3.44,1,276.6,1,6.47,1,999.18,1,13.63,1,41.39,1
2011,04,01,14,10,494.78,2,-99999,99,413.14,2,9.33,1,79.3,1,12.17,1,4.8,1,265.1,1,7.24,1,999.1,1,13.63,1,42.13,1
2011,04,01,14,15,346.98,2,-99999,99,346.98,2,9.33,1,79.5,1,12.19,1,3.43,1,259.3,1,7.05,1,999.18,1,13.62,1,42.89,1
2011,04,01,14,20,327.51,2,-99999,99,327.51,2,9.34,1,79.3,1,12.2,1,4.44,1,271.8,1,7.81,1,999.25,1,13.62,1,43.67,1
2011,04,01,14,25,247.73,2,-99999,99,247.73,2,9.28,1,80.2,1,12.22,1,4.2,1,285.6,1,7.05,1,999.37,1,13.62,1,44.47,1
2011,04,01,14,30,162.71,2,-99999,99,162.71,2,9.1,1,81.5,1,12.23,1,4.44,1,263.4,1,8.57,1,999.42,1,13.51,1,45.28,1
2011,04,01,14,35,189.75,2,-99999,99,189.75,2,9.01,1,81.6,1,12.23,1,5.17,1,261.6,1,9.14,1,999.49,1,13.62,1,46.1,1
2011,04,01,14,40,175.09,2,-99999,99,175.09,2,8.98,1,81.7,1,12.21,1,5.28,1,262.7,1,9.52,1,999.56,1,13.65,1,46.93,1
2011,04,01,14,45,138.29,2,-99999,99,138.29,2,9.03,1,82.2,1,12.16,1,4.15,1,262.7,1,8.57,1,999.57,1,13.54,1,47.78,1
2011,04,01,14,50,120.38,2,-99999,99,120.38,2,9.08,1,82.2,1,12.09,1,3.62,1,269.2,1,6.86,1,999.58,1,13.46,1,48.64,1
2011,04,01,14,55,106.7,2,-99999,99,106.7,2,9,1,82.1,1,12.01,1,4.61,1,261.2,1,10.28,1,999.61,1,13.39,1,49.51,1
2011,04,01,15,00,105.08,2,-99999,99,105.08,2,8.94,1,82.6,1,11.91,1,4.53,1,270.5,1,7.81,1,999.73,1,13.36,1,50.39,1
2011,04,01,15,05,151.82,2,-99999,99,151.82,2,8.88,1,83.9,1,11.82,1,4.34,1,290.1,1,9.52,1,999.88,1,13.51,1,51.28,1
2011,04,01,15,10,164.96,2,-99999,99,164.96,2,8.33,1,88.4,1,11.71,1,3.33,1,293.1,1,7.24,1,999.96,1,13.66,1,52.18,1
2011,04,01,15,15,112.45,2,-99999,99,112.45,2,8.06,1,91.4,1,11.6,1,2.77,1,291.1,1,6.86,1,1000,1,13.57,1,53.08,1
2011,04,01,15,20,76.23,2,-99999,99,76.23,2,8.02,1,91.8,1,11.49,1,2.89,1,288.1,1,6.28,1,1000.1,1,13.43,1,54,1
2011,04,01,15,25,50.31,2,-99999,99,50.31,2,8.04,1,92,1,11.38,1,2.33,1,285.6,1,5.52,1,1000.2,1,13.31,1,54.92,1
2011,04,01,15,30,29.86,7,-99999,99,29.86,1,8.06,1,91.5,1,11.26,1,2.94,1,294.5,1,5.52,1,1000.2,1,13.12,1,55.85,1
2011,04,01,15,35,29.17,7,-99999,99,29.17,1,8.06,1,91.4,1,11.13,1,2.31,1,288.8,1,4.95,1,1000.3,1,13.1,1,56.78,1
2011,04,01,15,40,80.81,2,-99999,99,80.81,2,7.92,1,91.8,1,10.98,1,2.99,1,282,1,6.09,1,1000.2,1,13.19,1,57.72,1
2011,04,01,15,45,119.67,2,-99999,99,119.67,2,7.86,1,92.9,1,10.82,1,3,1,291.4,1,6.09,1,1000.2,1,13.34,1,58.67,1
2011,04,01,15,50,223.03,2,-99999,99,221,2,7.99,1,93.2,1,10.66,1,2.31,1,288.9,1,4.76,1,1000.2,1,13.71,1,59.62,1
2011,04,01,15,55,406.51,2,-99999,99,267.48,2,8.42,1,91.6,1,10.5,1,2.27,1,282,1,4,1,1000.3,1,13.71,1,60.58,1
2011,04,01,16,00,138.88,2,-99999,99,138.88,2,8.72,1,89.3,1,10.38,1,3.11,1,272.1,1,6.09,1,1000.4,1,13.67,1,61.54,1
2011,04,01,16,05,85.63,2,-99999,99,83.49,2,8.68,1,89.3,1,10.31,1,2.29,1,265,1,4.19,1,1000.5,1,13.44,1,62.51,1
2011,04,01,16,10,178.71,2,-99999,99,171.64,2,8.77,1,87.5,1,10.26,1,2.89,1,268.8,1,5.9,1,1000.5,1,13.69,1,63.48,1
2011,04,01,16,15,223.55,2,-99999,99,220.3,2,9.07,1,79.1,1,10.24,1,3.97,1,268,1,7.62,1,1000.4,1,13.7,1,64.46,1
2011,04,01,16,20,318.12,2,-99999,99,237.39,2,9.29,1,75.1,1,10.24,1,4.95,1,274.7,1,9.14,1,1000.5,1,13.7,1,65.44,1
2011,04,01,16,25,436.78,2,-99999,99,183.54,2,9.75,1,72.2,1,10.25,1,3.87,1,271.7,1,7.62,1,1000.5,1,13.69,1,66.42,1
2011,04,01,16,30,344.12,2,-99999,99,113.5,2,9.98,1,68.92,1,10.3,1,5.26,1,266.9,1,9.33,1,1000.5,1,13.63,1,67.4,1
2011,04,01,16,35,106.78,2,-99999,99,100.49,2,9.82,1,68,1,10.42,1,6.49,1,265.8,1,11.62,1,1000.5,1,13.47,1,68.39,1
2011,04,01,16,40,148.55,2,-99999,99,135.79,2,9.46,1,68.38,1,10.57,1,5.49,1,266.1,1,9.14,1,1000.8,1,13.56,1,69.38,1
2011,04,01,16,45,170.54,2,-99999,99,155.63,2,9.45,1,68.71,1,10.7,1,3.98,1,269.8,1,7.62,1,1001,1,13.68,1,70.37,1
2011,04,01,16,50,234.95,2,-99999,99,134.71,2,9.64,1,69.15,1,10.79,1,4.8,1,260.8,1,8,1,1000.9,1,13.67,1,71.36,1
2011,04,01,16,55,208.08,2,-99999,99,119.19,2,9.67,1,70.4,1,10.86,1,5.34,1,258.6,1,8.76,1,1001,1,13.63,1,72.36,1
2011,04,01,17,00,209.73,2,-99999,99,88.9,2,9.79,1,69.65,1,10.92,1,4.94,1,265.4,1,8,1,1001.1,1,13.53,1,73.35,1
2011,04,01,17,05,98.44,2,-99999,99,85.63,2,9.73,1,69.8,1,10.98,1,4.17,1,265.3,1,8,1,1001.3,1,13.35,1,74.35,1
2011,04,01,17,10,157.02,2,-99999,99,86.33,2,9.54,1,70.5,1,11.04,1,4.22,1,259.7,1,7.43,1,1001.4,1,13.3,1,75.35,1
2011,04,01,17,15,114.96,2,-99999,99,96.49,2,9.58,1,70.2,1,11.08,1,4.13,1,264.8,1,8.19,1,1001.5,1,13.33,1,76.35,1
2011,04,01,17,20,86.82,2,-99999,99,83.88,2,9.49,1,71.8,1,11.1,1,3.2,1,265,1,7.62,1,1001.6,1,13.27,1,77.35,1
2011,04,01,17,25,116.09,2,-99999,99,79.97,2,9.48,1,71.2,1,11.11,1,3.29,1,261.4,1,6.28,1,1001.7,1,13.26,1,78.35,1
2011,04,01,17,30,78.38,2,-99999,99,77.98,2,9.5,1,71,1,11.1,1,3.73,1,261.8,1,7.24,1,1001.8,1,13.13,1,79.35,1
2011,04,01,17,35,46.47,2,-99999,99,46.47,2,9.42,1,71.5,1,11.09,1,3.33,1,258.2,1,6.47,1,1001.9,1,13.1,1,80.35,1
2011,04,01,17,40,53.88,1,-99999,99,53.88,1,9.34,1,72.1,1,11.05,1,2.77,1,254.6,1,4.95,1,1002,1,13.07,1,81.35,1
2011,04,01,17,45,52.82,1,-99999,99,49.39,1,9.32,1,72,1,11,1,3.29,1,269,1,6.28,1,1002,1,13.04,1,82.34,1
2011,04,01,17,50,44.22,1,-99999,99,42.6,1,9.34,1,72.6,1,10.94,1,2.33,1,259.4,1,4.38,1,1002.1,1,13.02,1,83.33,1
2011,04,01,17,55,34.67,1,-99999,99,30.45,1,9.29,1,73.1,1,10.86,1,2.83,1,255.9,1,5.9,1,1002.1,1,13.01,1,84.32,1